This demonstration page uses our WeatherBlox Daily Observations layout. Learn more.

Left ArrowRight Arrow

Hourly Observations for August 17, 2022

Temp ( °F °C ) Dew Point ( °F °C ) Humidity (%) Winds ( mph kmh ) Pressure ( in mb ) Visibility ( mi km ) Precip ( " mm )
1:53 am 01:53 Mostly Cloudy 89 31.7 63 17.2 42 42 SSW 3 6 29.86 1011 10 16 0.00 0.00
2:53 am 02:53 Mostly Cloudy 85 29.4 64 17.8 50 50 Calm 29.87 1011 10 16 0.00 0.00
3:53 am 03:53 Mostly Cloudy 86 30 66 18.9 51 51 W 3 6 29.88 1012 10 16 0.00 0.00
4:53 am 04:53 Partly Cloudy 85 29.4 66 18.9 53 53 SW 5 7 29.88 1012 10 16 0.00 0.00
5:53 am 05:53 Partly Cloudy 85 29.4 68 20 57 57 SW 6 9 29.89 1012 10 16 0.00 0.00
6:53 am 06:53 Partly Cloudy 84 28.9 69 20.6 61 61 SW 6 9 29.91 1013 10 16 0.00 0.00
7:53 am 07:53 Partly Cloudy 84 28.9 68 20 59 59 SW 8 13 29.93 1014 10 16 0.00 0.00
8:53 am 08:53 Mostly Sunny 87 30.6 69 20.6 55 55 W 6 9 29.95 1014 10 16 0.00 0.00
9:53 am 09:53 Mostly Sunny 91 32.8 67 19.4 45 45 W 7 11 29.94 1014 10 16 0.00 0.00
10:53 am 10:53 Mostly Sunny 95 35 66 18.9 39 39 NW 9 15 29.95 1014 10 16 0.00 0.00
11:53 am 11:53 Mostly Sunny 96 35.6 66 18.9 38 38 VRB 6 9 29.94 1014 10 16 0.00 0.00
12:53 pm 12:53 Mostly Sunny 99 37.2 65 18.3 33 33 NW 10 17 29.92 1013 10 16 0.00 0.00
1:53 pm 13:53 Mostly Sunny 101 38.3 65 18.3 31 31 VRB 5 7 29.90 1013 10 16 0.00 0.00
2:53 pm 14:53 Partly Cloudy 103 39.4 65 18.3 29 29 NW 13 20 29.88 1012 10 16 0.00 0.00
3:53 pm 15:53 Partly Cloudy 102 38.9 65 18.3 30 30 NNE 9 15 29.87 1011 10 16 0.00 0.00
4:53 pm 16:53 Partly Cloudy 102 38.9 66 18.9 31 31 N 10 17 29.85 1011 10 16 0.00 0.00
5:53 pm 17:53 Mostly Sunny 102 38.9 65 18.3 30 30 N 9 15 29.84 1010 10 16 0.00 0.00
6:53 pm 18:53 Partly Cloudy 100 37.8 65 18.3 32 32 N 10 17 29.85 1011 10 16 0.00 0.00
7:53 pm 19:53 Mostly Cloudy 97 36.1 69 20.6 41 41 ENE 16 26 29.85 1011 10 16 0.00 0.00
8:53 pm 20:53 Partly Cloudy 93 33.9 70 21.1 47 47 ENE 10 17 29.86 1011 10 16 0.00 0.00
9:22 pm 21:22 Mostly Cloudy with Thunderstorms 91 32.8 71 21.7 52 52 SE 17 28 29.91 1013 10 16 0.00 0.00
9:33 pm 21:33 Mostly Cloudy with Thunderstorms 80 26.7 70 21.1 71 71 S 18 30 29.96 1014 10 16 0.00 0.00
9:53 pm 21:53 Windy with Storms Likely 79 26 70 21 74 74 S 24 39 29.98 1015 6 10 0.01 0.13
10:04 pm 22:04 Windy with Storms Likely 73 22.8 69 20.6 87 87 S 20 31 29.99 1016 3 5 0.01 0.13
10:18 pm 22:18 Cloudy with Thunderstorms 73 22.8 70 21.1 90 90 S 14 22 30.00 1016 6 10 0.02 0.51
10:53 pm 22:53 Cloudy with Thunderstorms 75 23.9 69 20.6 82 82 WSW 9 15 29.99 1016 10 16 0.06 1.52
11:14 pm 23:14 Cloudy 75 23.9 69 20.6 82 82 NNW 3 6 29.98 1015 10 16 0.00 0.00
11:53 pm 23:53 Cloudy 75 23.9 71 21.7 88 88 E 5 7 29.96 1015 10 16 0.00 0.00

Powered by AerisWeather